Regional Weather Roundup
Issued by NWS

Home | Current Version | Previous Version | Text Only | Print | Product List | Glossary Off
Versions: 1 2 3 4 5 6 7 8 9 10 11 12 13 14 15 16 17 18 19 20 21 22 23 24 25 26 27 28 29 30 31 32 33 34 35 36 37 38 39 40 41 42 43 44 45 46 47 48 49 50

000
ASUS43 KLMK 052110
RWRKY
KENTUCKY REGIONAL WEATHER ROUNDUP
NATIONAL WEATHER SERVICE LOUISVILLE KY
400 PM EST THU MAR 05 2015

NOTE "FAIR" INDICATES FEW OR NO CLOUDS BELOW 12,000 FEET
WITH NO SIGNIFICANT WEATHER AND/OR OBSTRUCTIONS TO VISIBILITY.

KYZ001>023-026-027-061>063-070>075-052200-
WESTERN AND SOUTH CENTRAL KENTUCKY

CITY           SKY/WX    TMP DP  RH WIND       PRES   REMARKS
PADUCAH        SUNNY     26   7  44 N14       30.51S WCI  14
HENDERSON      SUNNY     23   5  46 N9G16     30.51S WCI  13
OWENSBORO      SUNNY     22   6  50 NW16      30.50R WCI   8
HOPKINSVILLE   SUNNY     26   8  46 NW12      30.46S WCI  15
BOWLING GREEN  MOSUNNY   27  12  53 VRB7      30.45R WCI  19
GLASGOW        PTSUNNY   27  16  63 NW7       30.43R WCI  19
$$

KYZ024-025-028>034-038-045-046-053-052200-
NORTH CENTRAL KENTUCKY

CITY           SKY/WX    TMP DP  RH WIND       PRES   REMARKS
LOUISVILLE/SDF PTSUNNY   27  11  51 NW13      30.44R WCI  16
LOUISVILLE/LOU PTSUNNY   28  11  48 N6        30.44R WCI  22
FORT KNOX      SUNNY     24  11  56 NW10      30.41R WCI  14
$$

KYZ035>037-039>044-047>052-055>060-089>105-052200-
NORTHEAST KENTUCKY

CITY           SKY/WX    TMP DP  RH WIND       PRES   REMARKS
LEXINGTON      FLURRIES  22  12  65 NW10      30.40R WCI  11
COVINGTON      MOSUNNY   24   8  50 N15       30.39R WCI  11
FRANKFORT      PTSUNNY   24  12  60 VRB7      30.40R WCI  16
$$

KYZ054-064>069-076>088-106>120-052200-
SOUTHEAST KENTUCKY

CITY           SKY/WX    TMP DP  RH WIND       PRES   REMARKS
JACKSON        LGT SNOW  19  14  81 VRB5      30.34R WCI  12
LONDON         MIX PCPN  20  13  74 N12       30.34R WCI   8
SOMERSET       CLOUDY    19  14  79 N8        30.41R WCI   9
MIDDLESBORO    LGT SNOW  26  21  82 N5        30.30R WCI  20
MONTICELLO     FLURRIES  21  16  81 N8        30.42R WCI  11
$$




USA.gov is the U.S. government's official web portal to all federal, state and local government web resources and services.